OneWeb SL0577

operational
NORAD ID: 56066 Int'l Des: 2023-043 Owner: ONEWEBN Country: UK Constellation: oneweb
LEOCIRCULARPOLARONEWEB_TYPE

Über OneWeb SL0577

Beschreibung wird geladen...

Live-Position

3D-Globus wird geladen...

Nächste Überflüge

Höhenverlauf

Altitude vs Time

uPlot chart will show altitude changes over time

Zweizeiliger Elementsatz

1 56066U 23043W 26034.08529144 .00000050 00000-0 95899-4 0 9992
2 56066 87.9011 255.4656 0001865 58.2448 301.8865 13.16594210141341
Epoch: 3. Feb. 2026 • Age: 8 hours

Aktueller Status

Höhe 1201.6 km
Geschwindigkeit 7.25 km/s
Subsatellitenpunkt -0.93°S, 147.95°E
Startdatum 26. März 2023
Alter 2.8 years
Typ internet

Technische Details

Klassifizierung Payload
Masse 148.00 kg
Trockenmasse 140.00 kg
Gesamtmasse 148.00 kg
Länge 1.30 m
Durchmesser 1.00 m
Spannweite 5.00 m
Form Trapezoid+2 pan
Hersteller ONEWUS
Bus-Typ ARROW
Phasenstatus In Orbit
Besitzer/Staat ONEWEBN/UK

Große Konstellationen

Loading constellations...